This is the latest recevied weather packets stored in our database for station/object K5BOU. If no packets are shown the sender has not sent any weather packets the latest 10 day(s).
| Time | Temp. | Humidity | Pressure | Rain* | Wind** | Luminosity | Snow |
|---|---|---|---|---|---|---|---|
| 1777766200 | 24.44° C | 54% | 1016.1 hPa | 0 mm | - | 77 W/m² | - |
| 1777765899 | 24.44° C | 53% | 1016.3 hPa | 0 mm | - | 95 W/m² | - |
| 1777765594 | 24.44° C | 53% | 1016.1 hPa | 0 mm | - | 111 W/m² | - |
| 1777765292 | 25° C | 53% | 1016 hPa | 0 mm | - | 120 W/m² | - |
| 1777764987 | 24.44° C | 52% | 1015.8 hPa | 0 mm | - | 147 W/m² | - |
| 1777764684 | 24.44° C | 53% | 1016 hPa | 0 mm | - | 157 W/m² | - |
| 1777764380 | 24.44° C | 53% | 1015.8 hPa | 0 mm | - | 148 W/m² | - |
| 1777764078 | 25° C | 52% | 1015.9 hPa | 0 mm | - | 91 W/m² | - |
| 1777763774 | 25° C | 50% | 1016 hPa | 0 mm | - | 166 W/m² | - |
| 1777763472 | 24.44° C | 50% | 1016 hPa | 0 mm | - | 219 W/m² | - |
| 1777763170 | 25° C | 52% | 1016 hPa | 0 mm | - | 228 W/m² | - |
| 1777762869 | 25° C | 52% | 1015.9 hPa | 0 mm | - | 223 W/m² | - |
| 1777762564 | 25° C | 53% | 1015.9 hPa | 0 mm | - | 186 W/m² | - |
| 1777762261 | 25° C | 53% | 1015.8 hPa | 0 mm | - | 132 W/m² | - |
| 1777761957 | 25° C | 51% | 1015.8 hPa | 0 mm | - | 129 W/m² | - |
| 1777761654 | 25° C | 53% | 1015.7 hPa | 0 mm | - | 169 W/m² | - |
| 1777761352 | 25° C | 52% | 1015.7 hPa | 0 mm | - | 166 W/m² | - |
| 1777761050 | 25° C | 52% | 1015.7 hPa | 0 mm | - | 212 W/m² | - |
| 1777760747 | 25° C | 51% | 1016 hPa | 0 mm | - | 333 W/m² | - |
| 1777760443 | 25° C | 52% | 1015.8 hPa | 0 mm | - | 380 W/m² | - |
| 1777760139 | 25° C | 51% | 1016.1 hPa | 0 mm | - | 421 W/m² | - |
| 1777759837 | 25° C | 53% | 1016.1 hPa | 0 mm | - | 422 W/m² | - |
| 1777759532 | 25° C | 52% | 1015.8 hPa | 0 mm | - | 433 W/m² | - |
| 1777759229 | 25.56° C | 50% | 1016.1 hPa | 0 mm | - | 298 W/m² | - |
| 1777758926 | 25° C | 52% | 1016 hPa | 0 mm | - | 176 W/m² | - |
* Rain latest hour (hover to see other rain measurements)
** Current wind speed in m/s (hover to see current wind gust speed)